• In Czech Republic
  • List of Countries
  • For 7 days
  • Water Temperature
  • Satellite Maps
  • Weather Map
  • Weather Widgets
  • user-avatar
    Login

    Hourly Weather Azuqueca de Henares

    Today, 23 September, Sunday

    Time Temperature Precipitation Wind Pressure Humidity
    00:00 +26°C° 0 mm 2 mps 713 mmHg 32%
    01:00 +25°C° 0 mm 2 mps 713 mmHg 34%
    02:00 +25°C° 0 mm 2 mps 713 mmHg 35%
    03:00 +24°C° 0 mm 2 mps 712 mmHg 37%
    04:00 +24°C° 0 mm 1 mps 712 mmHg 38%
    05:00 +24°C° 0 mm 1 mps 712 mmHg 40%
    06:00 +23°C° 0 mm 1 mps 712 mmHg 41%
    07:00 +25°C° 0 mm 1 mps 713 mmHg 38%
    08:00 +27°C° 0 mm 1 mps 713 mmHg 34%
    09:00 +29°C° 0 mm 1 mps 714 mmHg 30%
    10:00 +30°C° 0 mm 1 mps 713 mmHg 28%
    11:00 +32°C° 0 mm 1 mps 713 mmHg 26%
    12:00 +33°C° 0 mm 1 mps 713 mmHg 24%
    13:00 +33°C° 0 mm 1 mps 713 mmHg 23%
    14:00 +35°C° 0 mm 2 mps 712 mmHg 22%
    15:00 +35°C° 0 mm 2 mps 712 mmHg 21%
    16:00 +34°C° 0 mm 2 mps 712 mmHg 23%
    17:00 +32°C° 0 mm 1 mps 712 mmHg 25%
    18:00 +31°C° 0 mm 1 mps 711 mmHg 27%
    19:00 +30°C° 0 mm 2 mps 712 mmHg 29%
    20:00 +29°C° 0 mm 2 mps 712 mmHg 30%
    21:00 +28°C° 0 mm 3 mps 713 mmHg 31%
    22:00 +27°C° 0 mm 3 mps 713 mmHg 39%
    23:00 +26°C° 0 mm 4 mps 713 mmHg 46%

    Tomorrow, 24 September, Monday

    Time Temperature Precipitation Wind Pressure Humidity
    00:00 +25°C° 0 mm 4 mps 713 mmHg 53%
    01:00 +23°C° 0 mm 4 mps 713 mmHg 55%
    02:00 +23°C° 0 mm 4 mps 712 mmHg 57%
    03:00 +22°C° 0 mm 3 mps 712 mmHg 59%
    04:00 +22°C° 0 mm 3 mps 712 mmHg 59%
    05:00 +21°C° 0 mm 4 mps 712 mmHg 60%
    06:00 +21°C° 0 mm 4 mps 712 mmHg 61%
    07:00 +22°C° 0 mm 4 mps 713 mmHg 56%
    08:00 +25°C° 0 mm 4 mps 713 mmHg 52%
    09:00 +26°C° 0 mm 4 mps 714 mmHg 48%
    10:00 +28°C° 0 mm 4 mps 713 mmHg 43%
    11:00 +29°C° 0 mm 3 mps 713 mmHg 38%
    12:00 +31°C° 0 mm 3 mps 713 mmHg 33%
    13:00 +33°C° 0 mm 3 mps 713 mmHg 31%
    14:00 +32°C° 0 mm 2 mps 712 mmHg 29%
    15:00 +34°C° 0 mm 2 mps 712 mmHg 27%
    16:00 +32°C° 0 mm 2 mps 711 mmHg 29%
    17:00 +31°C° 0 mm 2 mps 711 mmHg 32%
    18:00 +30°C° 0 mm 2 mps 711 mmHg 34%
    19:00 +28°C° 0 mm 3 mps 712 mmHg 38%
    20:00 +27°C° 0 mm 3 mps 712 mmHg 42%
    21:00 +25°C° 0 mm 4 mps 712 mmHg 47%
    22:00 +25°C° 0 mm 4 mps 712 mmHg 49%
    23:00 +23°C° 0 mm 4 mps 712 mmHg 51%

    Day after tomorrow, 25 September, Tuesday

    Time Temperature Precipitation Wind Pressure Humidity
    00:00 +22°C° 0 mm 4 mps 712 mmHg 53%
    01:00 +21°C° 0 mm 3 mps 712 mmHg 54%
    02:00 +21°C° 0 mm 3 mps 711 mmHg 55%
    03:00 +21°C° 0 mm 3 mps 711 mmHg 56%
    04:00 +20°C° 0 mm 3 mps 711 mmHg 57%
    05:00 +20°C° 0 mm 3 mps 711 mmHg 58%
    06:00 +20°C° 0 mm 3 mps 711 mmHg 59%
    07:00 +21°C° 0 mm 3 mps 711 mmHg 57%
    08:00 +24°C° 0 mm 3 mps 712 mmHg 55%
    09:00 +25°C° 0 mm 3 mps 712 mmHg 52%
    10:00 +27°C° 0 mm 3 mps 712 mmHg 48%
    11:00 +29°C° 0 mm 3 mps 712 mmHg 44%
    12:00 +30°C° 0 mm 3 mps 712 mmHg 40%
    13:00 +31°C° 0 mm 3 mps 711 mmHg 38%
    14:00 +31°C° 0 mm 3 mps 711 mmHg 35%
    15:00 +33°C° 0 mm 3 mps 711 mmHg 33%
    16:00 +31°C° 0.1 mm 3 mps 711 mmHg 38%
    17:00 +29°C° 0.1 mm 4 mps 711 mmHg 43%
    18:00 +28°C° 0.1 mm 4 mps 711 mmHg 48%
    19:00 +26°C° 0.2 mm 5 mps 711 mmHg 55%
    20:00 +25°C° 0.2 mm 5 mps 711 mmHg 63%
    21:00 +22°C° 0.2 mm 5 mps 712 mmHg 71%
    22:00 +22°C° 0.3 mm 5 mps 712 mmHg 73%
    23:00 +21°C° 0.3 mm 4 mps 712 mmHg 76%

    26 September, Wednesday

    Time Temperature Precipitation Wind Pressure Humidity
    00:00 +21°C° 0.3 mm 4 mps 712 mmHg 78%
    01:00 +20°C° 0.4 mm 4 mps 712 mmHg 80%
    02:00 +20°C° 0.4 mm 3 mps 712 mmHg 81%
    03:00 +20°C° 0.4 mm 3 mps 712 mmHg 82%
    04:00 +19°C° 0.3 mm 3 mps 712 mmHg 83%
    05:00 +19°C° 0.3 mm 3 mps 712 mmHg 84%
    06:00 +19°C° 0.3 mm 3 mps 712 mmHg 85%
    07:00 +20°C° 0.2 mm 3 mps 713 mmHg 80%
    08:00 +21°C° 0.2 mm 3 mps 713 mmHg 75%
    09:00 +22°C° 0.2 mm 4 mps 714 mmHg 70%
    10:00 +23°C° 0 mm 4 mps 714 mmHg 65%
    11:00 +25°C° 0 mm 4 mps 714 mmHg 60%
    12:00 +27°C° 0 mm 4 mps 714 mmHg 54%
    13:00 +27°C° 0.1 mm 4 mps 714 mmHg 52%
    14:00 +28°C° 0.1 mm 4 mps 713 mmHg 49%
    15:00 +28°C° 0.1 mm 4 mps 713 mmHg 46%
    16:00 +28°C° 0.2 mm 3 mps 713 mmHg 49%
    17:00 +27°C° 0.2 mm 3 mps 713 mmHg 52%
    18:00 +26°C° 0.2 mm 3 mps 714 mmHg 55%
    19:00 +25°C° 0.2 mm 4 mps 714 mmHg 60%
    20:00 +23°C° 0.2 mm 4 mps 714 mmHg 64%
    21:00 +22°C° 0.2 mm 4 mps 715 mmHg 69%
    22:00 +21°C° 0.2 mm 3 mps 715 mmHg 72%
    23:00 +21°C° 0.2 mm 3 mps 715 mmHg 75%

    27 September, Thursday

    Time Temperature Precipitation Wind Pressure Humidity
    00:00 +20°C° 0.2 mm 2 mps 715 mmHg 78%
    01:00 +20°C° 0 mm 2 mps 715 mmHg 79%
    02:00 +20°C° 0 mm 2 mps 715 mmHg 80%
    03:00 +19°C° 0 mm 2 mps 715 mmHg 82%
    04:00 +19°C° 0 mm 2 mps 715 mmHg 82%
    05:00 +19°C° 0 mm 2 mps 715 mmHg 83%
    06:00 +18°C° 0 mm 2 mps 715 mmHg 84%
    07:00 +20°C° 0 mm 2 mps 715 mmHg 78%
    08:00 +21°C° 0 mm 2 mps 715 mmHg 71%
    09:00 +23°C° 0 mm 2 mps 716 mmHg 65%
    10:00 +25°C° 0 mm 2 mps 715 mmHg 59%
    11:00 +26°C° 0 mm 3 mps 715 mmHg 53%
    12:00 +27°C° 0 mm 3 mps 715 mmHg 48%
    13:00 +28°C° 0 mm 3 mps 715 mmHg 46%
    14:00 +28°C° 0 mm 2 mps 714 mmHg 44%
    15:00 +28°C° 0 mm 2 mps 714 mmHg 42%
    16:00 +28°C° 0.1 mm 2 mps 714 mmHg 45%
    17:00 +27°C° 0.1 mm 2 mps 713 mmHg 48%
    18:00 +26°C° 0.1 mm 2 mps 713 mmHg 52%
    19:00 +25°C° 0.1 mm 3 mps 714 mmHg 56%
    20:00 +24°C° 0.1 mm 3 mps 714 mmHg 61%
    21:00 +22°C° 0.1 mm 3 mps 714 mmHg 66%
    22:00 +21°C° 0.3 mm 3 mps 714 mmHg 70%
    23:00 +21°C° 0.3 mm 2 mps 714 mmHg 74%

    28 September, Friday

    Time Temperature Precipitation Wind Pressure Humidity
    00:00 +20°C° 0.3 mm 2 mps 713 mmHg 77%
    01:00 +21°C° 0.1 mm 1 mps 713 mmHg 79%
    02:00 +21°C° 0.1 mm 1 mps 713 mmHg 81%
    03:00 +20°C° 0.1 mm 1 mps 712 mmHg 83%
    04:00 +20°C° 0 mm 1 mps 712 mmHg 84%
    05:00 +20°C° 0 mm 1 mps 712 mmHg 85%
    06:00 +19°C° 0 mm 1 mps 712 mmHg 86%
    07:00 +21°C° 0 mm 1 mps 712 mmHg 79%
    08:00 +22°C° 0 mm 1 mps 712 mmHg 72%
    09:00 +23°C° 0 mm 1 mps 712 mmHg 65%
    10:00 +25°C° 0 mm 1 mps 712 mmHg 59%
    11:00 +26°C° 0 mm 1 mps 712 mmHg 53%
    12:00 +28°C° 0 mm 1 mps 711 mmHg 47%
    13:00 +28°C° 0 mm 1 mps 711 mmHg 44%
    14:00 +29°C° 0 mm 1 mps 710 mmHg 42%
    15:00 +29°C° 0 mm 1 mps 710 mmHg 39%
    16:00 +28°C° 0 mm 1 mps 710 mmHg 41%
    17:00 +28°C° 0 mm 1 mps 709 mmHg 43%
    18:00 +27°C° 0 mm 1 mps 709 mmHg 44%
    19:00 +26°C° 0 mm 1 mps 710 mmHg 47%
    20:00 +26°C° 0 mm 1 mps 710 mmHg 49%
    21:00 +25°C° 0 mm 1 mps 710 mmHg 52%
    22:00 +24°C° 0.1 mm 1 mps 709 mmHg 53%
    23:00 +24°C° 0.1 mm 1 mps 709 mmHg 55%
    Show more